Time,TemperatureF,DewpointF,PressureIn,WindDirection,WindDirectionDegrees,WindSpeedMPH,WindSpeedGustMPH,Humidity,HourlyPrecipIn,Conditions,Clouds,dailyrainin,SoftwareType,DateUTC
2013-07-10 00:02:00,81.7,76.6,29.84,NW,311,0.0,0.0,85,0.00,,,0.00,meteohub,2013-07-10 05:02:00,
2013-07-10 00:09:00,81.7,76.6,29.84,WNW,296,0.0,0.0,85,0.00,,,0.00,meteohub,2013-07-10 05:09:00,
2013-07-10 00:15:00,81.7,76.6,29.84,WNW,296,0.0,0.0,85,0.00,,,0.00,meteohub,2013-07-10 05:15:00,
2013-07-10 00:21:00,81.5,76.5,29.84,WNW,296,0.0,0.0,85,0.00,,,0.00,meteohub,2013-07-10 05:21:00,
2013-07-10 00:27:00,81.3,76.6,29.84,NNW,333,0.0,0.0,86,0.00,,,0.00,meteohub,2013-07-10 05:27:00,
2013-07-10 00:32:00,81.3,76.6,29.84,NW,315,0.0,0.0,86,0.00,,,0.00,meteohub,2013-07-10 05:32:00,
2013-07-10 00:37:00,81.1,76.5,29.84,NW,304,0.0,0.0,86,0.00,,,0.00,meteohub,2013-07-10 05:37:00,
2013-07-10 00:42:00,81.1,76.5,29.84,WNW,298,0.0,0.0,86,0.00,,,0.00,meteohub,2013-07-10 05:42:00,
2013-07-10 00:47:00,81.1,76.5,29.84,NW,311,0.0,0.0,86,0.00,,,0.00,meteohub,2013-07-10 05:47:00,
2013-07-10 00:52:00,81.0,76.5,29.84,NW,306,0.0,0.0,86,0.00,,,0.00,meteohub,2013-07-10 05:52:00,
2013-07-10 00:57:00,81.0,76.5,29.84,WNW,302,0.0,0.0,86,0.00,,,0.00,meteohub,2013-07-10 05:57:00,
2013-07-10 01:02:00,81.0,76.6,29.83,WNW,302,0.0,0.0,87,0.00,,,0.00,meteohub,2013-07-10 06:02:00,
2013-07-10 01:07:00,80.8,76.5,29.83,WNW,302,0.0,0.0,87,0.00,,,0.00,meteohub,2013-07-10 06:07:00,
2013-07-10 01:12:00,80.8,76.5,29.83,WNW,300,0.0,0.0,87,0.00,,,0.00,meteohub,2013-07-10 06:12:00,
2013-07-10 01:17:00,80.6,76.3,29.83,WNW,301,0.0,0.0,87,0.00,,,0.00,meteohub,2013-07-10 06:17:00,
2013-07-10 01:22:00,80.6,76.3,29.83,WNW,301,0.0,0.0,87,0.00,,,0.00,meteohub,2013-07-10 06:22:00,
2013-07-10 01:27:00,80.4,76.5,29.83,WNW,301,0.0,0.0,88,0.00,,,0.00,meteohub,2013-07-10 06:27:00,
2013-07-10 01:32:00,80.4,76.5,29.83,WNW,301,0.0,0.0,88,0.00,,,0.00,meteohub,2013-07-10 06:32:00,
2013-07-10 01:39:00,80.2,76.3,29.83,WNW,302,0.0,0.0,88,0.00,,,0.00,meteohub,2013-07-10 06:39:00,
2013-07-10 01:45:00,80.2,76.3,29.83,WNW,296,0.0,0.0,88,0.00,,,0.00,meteohub,2013-07-10 06:45:00,
2013-07-10 01:51:00,80.1,76.1,29.83,WNW,296,0.0,0.0,88,0.00,,,0.00,meteohub,2013-07-10 06:51:00,
2013-07-10 01:57:00,80.1,76.5,29.83,WNW,298,0.0,0.0,89,0.00,,,0.00,meteohub,2013-07-10 06:57:00,
2013-07-10 02:02:00,80.1,76.5,29.83,WNW,298,0.0,0.0,89,0.00,,,0.00,meteohub,2013-07-10 07:02:00,
2013-07-10 02:07:00,80.1,76.5,29.83,WNW,298,0.0,0.0,89,0.00,,,0.00,meteohub,2013-07-10 07:07:00,
2013-07-10 02:12:00,79.9,76.3,29.82,WNW,298,0.0,0.0,89,0.00,,,0.00,meteohub,2013-07-10 07:12:00,
2013-07-10 02:17:00,79.9,76.3,29.82,WNW,298,0.0,0.0,89,0.00,,,0.00,meteohub,2013-07-10 07:17:00,
2013-07-10 02:22:00,79.7,76.5,29.82,WNW,290,0.0,0.0,90,0.00,,,0.00,meteohub,2013-07-10 07:22:00,
2013-07-10 02:27:00,79.7,76.5,29.82,WNW,290,0.0,0.0,90,0.00,,,0.00,meteohub,2013-07-10 07:27:00,
2013-07-10 02:32:00,79.5,76.3,29.81,WNW,298,0.0,0.0,90,0.00,,,0.00,meteohub,2013-07-10 07:32:00,
2013-07-10 02:37:00,79.5,76.3,29.81,NW,304,0.0,0.0,90,0.00,,,0.00,meteohub,2013-07-10 07:37:00,
2013-07-10 02:42:00,79.5,76.3,29.81,NW,304,0.0,0.0,90,0.00,,,0.00,meteohub,2013-07-10 07:42:00,
2013-07-10 02:47:00,79.5,76.3,29.81,NW,309,0.0,0.0,90,0.00,,,0.00,meteohub,2013-07-10 07:47:00,
2013-07-10 02:52:00,79.5,76.3,29.81,NW,306,0.0,0.0,90,0.00,,,0.00,meteohub,2013-07-10 07:52:00,
2013-07-10 02:57:00,79.5,76.3,29.81,NW,306,0.0,0.0,90,0.00,,,0.00,meteohub,2013-07-10 07:57:00,
2013-07-10 03:03:00,79.5,76.3,29.81,NW,306,0.0,0.0,90,0.00,,,0.00,meteohub,2013-07-10 08:03:00,
2013-07-10 03:09:00,79.3,76.1,29.81,NW,306,0.0,0.0,90,0.00,,,0.00,meteohub,2013-07-10 08:09:00,
2013-07-10 03:15:00,79.3,76.1,29.81,NW,306,0.0,0.0,90,0.00,,,0.00,meteohub,2013-07-10 08:15:00,
2013-07-10 03:22:00,79.2,76.3,29.80,NW,306,0.0,0.0,91,0.00,,,0.00,meteohub,2013-07-10 08:22:00,
2013-07-10 03:27:00,79.2,76.3,29.80,NW,306,0.0,0.0,91,0.00,,,0.00,meteohub,2013-07-10 08:27:00,
2013-07-10 03:32:00,79.0,76.1,29.81,NW,306,0.0,0.0,91,0.00,,,0.00,meteohub,2013-07-10 08:32:00,
2013-07-10 03:37:00,79.0,76.1,29.80,NW,306,0.0,0.0,91,0.00,,,0.00,meteohub,2013-07-10 08:37:00,
2013-07-10 03:42:00,78.8,76.3,29.81,NW,306,0.0,0.0,92,0.00,,,0.00,meteohub,2013-07-10 08:42:00,
2013-07-10 03:47:00,78.8,76.3,29.81,NW,306,0.0,0.0,92,0.00,,,0.00,meteohub,2013-07-10 08:47:00,
2013-07-10 03:52:00,78.8,76.3,29.80,NW,306,0.0,0.0,92,0.00,,,0.00,meteohub,2013-07-10 08:52:00,
2013-07-10 03:57:00,78.8,76.3,29.80,NW,306,0.0,0.0,92,0.00,,,0.00,meteohub,2013-07-10 08:57:00,
2013-07-10 04:02:00,78.8,76.3,29.80,NW,306,0.0,0.0,92,0.00,,,0.00,meteohub,2013-07-10 09:02:00,
2013-07-10 04:07:00,78.6,76.1,29.80,NW,306,0.0,0.0,92,0.00,,,0.00,meteohub,2013-07-10 09:07:00,
2013-07-10 04:12:00,78.6,76.1,29.80,NW,306,0.0,0.0,92,0.00,,,0.00,meteohub,2013-07-10 09:12:00,
2013-07-10 04:17:00,78.6,76.1,29.81,NW,306,0.0,0.0,92,0.00,,,0.00,meteohub,2013-07-10 09:17:00,
2013-07-10 04:22:00,78.6,76.1,29.81,NW,306,0.0,0.0,92,0.00,,,0.00,meteohub,2013-07-10 09:22:00,
2013-07-10 04:27:00,78.6,76.1,29.81,NW,306,0.0,0.0,92,0.00,,,0.00,meteohub,2013-07-10 09:27:00,
2013-07-10 04:32:00,78.6,76.1,29.81,WNW,293,0.0,0.0,92,0.00,,,0.00,meteohub,2013-07-10 09:32:00,
2013-07-10 04:37:00,78.6,76.1,29.80,WNW,293,0.0,0.0,92,0.00,,,0.00,meteohub,2013-07-10 09:37:00,
2013-07-10 04:42:00,78.6,76.1,29.81,WNW,294,0.0,0.0,92,0.00,,,0.00,meteohub,2013-07-10 09:42:00,
2013-07-10 04:47:00,78.6,76.1,29.81,WNW,294,0.0,0.0,92,0.00,,,0.00,meteohub,2013-07-10 09:47:00,
2013-07-10 04:52:00,78.6,76.1,29.81,WNW,296,0.0,0.0,92,0.00,,,0.00,meteohub,2013-07-10 09:52:00,
2013-07-10 04:57:00,78.6,76.1,29.81,NNE,29,0.0,0.0,92,0.00,,,0.00,meteohub,2013-07-10 09:57:00,
2013-07-10 05:02:00,78.6,76.1,29.81,NNE,29,0.0,0.0,92,0.00,,,0.00,meteohub,2013-07-10 10:02:00,
2013-07-10 05:07:00,78.4,75.9,29.82,NE,39,0.0,0.0,92,0.00,,,0.00,meteohub,2013-07-10 10:07:00,
2013-07-10 05:12:00,78.4,75.9,29.81,NE,39,0.0,0.0,92,0.00,,,0.00,meteohub,2013-07-10 10:12:00,
2013-07-10 05:17:00,78.4,75.9,29.81,North,5,0.0,0.0,92,0.00,,,0.00,meteohub,2013-07-10 10:17:00,
2013-07-10 05:22:00,78.4,75.9,29.81,North,5,0.0,0.0,92,0.00,,,0.00,meteohub,2013-07-10 10:22:00,
2013-07-10 05:27:00,78.4,75.9,29.81,North,5,0.0,0.0,92,0.00,,,0.00,meteohub,2013-07-10 10:27:00,
2013-07-10 05:32:00,78.3,75.7,29.81,North,5,0.0,0.0,92,0.00,,,0.00,meteohub,2013-07-10 10:32:00,
2013-07-10 05:37:00,78.3,76.1,29.81,North,5,0.0,0.0,93,0.00,,,0.00,meteohub,2013-07-10 10:37:00,
2013-07-10 05:42:00,78.3,76.1,29.82,North,5,0.0,0.0,93,0.00,,,0.00,meteohub,2013-07-10 10:42:00,
2013-07-10 05:47:00,78.3,76.1,29.81,North,5,0.0,0.0,93,0.00,,,0.00,meteohub,2013-07-10 10:47:00,
2013-07-10 05:52:00,78.3,76.1,29.81,North,5,0.0,0.0,93,0.00,,,0.00,meteohub,2013-07-10 10:52:00,
2013-07-10 05:57:00,78.3,76.1,29.81,North,5,0.0,0.0,93,0.00,,,0.00,meteohub,2013-07-10 10:57:00,
2013-07-10 06:02:00,78.3,76.1,29.81,North,5,0.0,0.0,93,0.00,,,0.00,meteohub,2013-07-10 11:02:00,
2013-07-10 06:07:00,78.3,76.1,29.81,North,5,0.0,0.0,93,0.00,,,0.00,meteohub,2013-07-10 11:07:00,
2013-07-10 06:12:00,78.3,76.1,29.81,North,5,0.0,0.0,93,0.00,,,0.00,meteohub,2013-07-10 11:12:00,
2013-07-10 06:17:00,78.3,76.1,29.81,North,5,0.0,0.0,93,0.00,,,0.00,meteohub,2013-07-10 11:17:00,
2013-07-10 06:22:00,78.3,76.1,29.81,North,5,0.0,0.0,93,0.00,,,0.00,meteohub,2013-07-10 11:22:00,
2013-07-10 06:27:00,78.3,76.1,29.81,NNE,15,0.0,0.0,93,0.00,,,0.00,meteohub,2013-07-10 11:27:00,
2013-07-10 06:32:00,78.4,76.3,29.81,NNE,15,0.0,0.0,93,0.00,,,0.00,meteohub,2013-07-10 11:32:00,
2013-07-10 06:37:00,78.4,76.3,29.81,NNE,30,0.0,0.0,93,0.00,,,0.00,meteohub,2013-07-10 11:37:00,
2013-07-10 06:42:00,78.4,75.9,29.81,NNE,30,0.0,0.0,92,0.00,,,0.00,meteohub,2013-07-10 11:42:00,
2013-07-10 06:47:00,78.6,76.1,29.81,NNE,30,0.0,0.0,92,0.00,,,0.00,meteohub,2013-07-10 11:47:00,
2013-07-10 06:52:00,78.6,75.7,29.81,NE,48,0.0,0.0,91,0.00,,,0.00,meteohub,2013-07-10 11:52:00,
2013-07-10 06:57:00,79.0,76.1,29.81,NE,48,0.0,0.0,91,0.00,,,0.00,meteohub,2013-07-10 11:57:00,
2013-07-10 07:02:00,79.0,75.4,29.81,NE,48,0.0,0.0,89,0.00,,,0.00,meteohub,2013-07-10 12:02:00,
2013-07-10 07:07:00,79.2,75.6,29.82,NE,48,0.0,0.0,89,0.00,,,0.00,meteohub,2013-07-10 12:07:00,
2013-07-10 07:12:00,79.3,75.6,29.82,NE,48,0.0,0.0,88,0.00,,,0.00,meteohub,2013-07-10 12:12:00,
2013-07-10 07:17:00,79.5,75.4,29.82,NE,49,0.0,0.0,87,0.00,,,0.00,meteohub,2013-07-10 12:17:00,
2013-07-10 07:22:00,79.5,75.0,29.82,NE,51,0.0,0.0,86,0.00,,,0.00,meteohub,2013-07-10 12:22:00,
2013-07-10 07:27:00,79.9,75.0,29.82,NE,44,0.0,0.0,85,0.00,,,0.00,meteohub,2013-07-10 12:27:00,
2013-07-10 07:32:00,80.1,74.5,29.83,NE,54,0.0,0.0,83,0.00,,,0.00,meteohub,2013-07-10 12:32:00,
2013-07-10 07:37:00,80.2,75.0,29.83,NE,55,0.0,0.0,84,0.00,,,0.00,meteohub,2013-07-10 12:37:00,
2013-07-10 07:42:00,80.2,74.3,29.83,NE,56,0.0,0.0,82,0.00,,,0.00,meteohub,2013-07-10 12:42:00,
2013-07-10 07:47:00,80.2,73.9,29.83,NE,46,0.0,0.0,81,0.00,,,0.00,meteohub,2013-07-10 12:47:00,
2013-07-10 07:52:00,80.4,73.8,29.83,NE,52,0.0,0.0,80,0.00,,,0.00,meteohub,2013-07-10 12:52:00,
2013-07-10 07:57:00,80.4,73.8,29.83,NE,50,0.0,0.0,80,0.00,,,0.00,meteohub,2013-07-10 12:57:00,
2013-07-10 08:02:00,80.6,73.9,29.83,ENE,60,0.0,0.0,80,0.00,,,0.00,meteohub,2013-07-10 13:02:00,
2013-07-10 08:07:00,80.8,73.6,29.83,NE,50,0.0,0.0,79,0.00,,,0.00,meteohub,2013-07-10 13:07:00,
2013-07-10 08:12:00,80.8,73.6,29.83,NE,45,0.0,0.0,79,0.00,,,0.00,meteohub,2013-07-10 13:12:00,
2013-07-10 08:17:00,81.0,73.8,29.83,ENE,59,0.0,0.0,79,0.00,,,0.00,meteohub,2013-07-10 13:17:00,
2013-07-10 08:22:00,81.0,73.4,29.83,ENE,59,0.0,0.0,78,0.00,,,0.00,meteohub,2013-07-10 13:22:00,
2013-07-10 08:27:00,81.1,73.6,29.83,ENE,66,0.0,0.0,78,0.00,,,0.00,meteohub,2013-07-10 13:27:00,
2013-07-10 08:32:00,81.1,73.6,29.83,NE,44,0.0,0.0,78,0.00,,,0.00,meteohub,2013-07-10 13:32:00,
2013-07-10 08:37:00,81.1,72.9,29.83,NE,47,0.0,0.0,76,0.00,,,0.00,meteohub,2013-07-10 13:37:00,
2013-07-10 08:42:00,81.1,72.9,29.83,ENE,68,0.0,0.0,76,0.00,,,0.00,meteohub,2013-07-10 13:42:00,
2013-07-10 08:47:00,81.3,73.4,29.83,NE,49,0.0,0.0,77,0.00,,,0.00,meteohub,2013-07-10 13:47:00,
2013-07-10 08:52:00,81.7,73.4,29.83,ENE,64,0.0,0.0,76,0.00,,,0.00,meteohub,2013-07-10 13:52:00,
2013-07-10 08:57:00,81.9,73.2,29.83,NNE,30,0.0,0.0,75,0.00,,,0.00,meteohub,2013-07-10 13:57:00,
2013-07-10 09:02:00,81.9,73.6,29.83,ENE,57,0.0,0.0,76,0.00,,,0.00,meteohub,2013-07-10 14:02:00,
2013-07-10 09:07:00,82.0,73.4,29.83,NE,48,0.0,0.0,75,0.00,,,0.00,meteohub,2013-07-10 14:07:00,
2013-07-10 09:12:00,82.0,72.9,29.83,ENE,70,0.0,0.0,74,0.00,,,0.00,meteohub,2013-07-10 14:12:00,
2013-07-10 09:14:00,82.0,72.9,29.83,NE,53,0.0,0.0,74,0.00,,,0.00,meteohub,2013-07-10 14:14:00,
2013-07-10 09:20:00,82.4,72.9,29.83,ENE,67,0.0,0.0,73,0.00,,,0.00,meteohub,2013-07-10 14:20:00,
2013-07-10 09:26:00,82.2,72.0,29.82,ENE,62,0.0,0.0,71,0.00,,,0.00,meteohub,2013-07-10 14:26:00,
2013-07-10 09:32:00,82.0,71.8,29.82,ENE,70,0.0,0.0,71,0.00,,,0.00,meteohub,2013-07-10 14:32:00,
2013-07-10 09:37:00,82.0,71.8,29.82,ENE,63,0.0,0.0,71,0.00,,,0.00,meteohub,2013-07-10 14:37:00,
2013-07-10 09:42:00,82.0,72.1,29.82,East,84,0.0,0.0,72,0.00,,,0.00,meteohub,2013-07-10 14:42:00,
2013-07-10 09:47:00,82.4,72.9,29.82,ENE,64,0.0,0.0,73,0.00,,,0.00,meteohub,2013-07-10 14:47:00,
2013-07-10 09:52:00,82.9,72.5,29.82,ENE,61,0.0,0.0,71,0.00,,,0.00,meteohub,2013-07-10 14:52:00,
2013-07-10 09:57:00,83.3,72.5,29.83,ENE,58,0.0,0.0,70,0.00,,,0.00,meteohub,2013-07-10 14:57:00,
2013-07-10 10:02:00,83.7,71.6,29.83,ENE,69,0.0,0.0,67,0.00,,,0.00,meteohub,2013-07-10 15:02:00,
2013-07-10 10:07:00,83.7,71.1,29.83,ENE,66,0.0,0.0,66,0.00,,,0.00,meteohub,2013-07-10 15:07:00,
2013-07-10 10:12:00,83.7,71.1,29.84,ENE,70,0.0,0.0,66,0.00,,,0.00,meteohub,2013-07-10 15:12:00,
2013-07-10 10:17:00,83.7,70.7,29.84,ENE,67,0.0,0.0,65,0.00,,,0.00,meteohub,2013-07-10 15:17:00,
2013-07-10 10:22:00,83.8,71.2,29.84,ENE,66,0.0,0.0,66,0.00,,,0.00,meteohub,2013-07-10 15:22:00,
2013-07-10 10:27:00,83.8,70.9,29.84,ENE,70,0.0,0.0,65,0.00,,,0.00,meteohub,2013-07-10 15:27:00,
2013-07-10 10:32:00,84.0,71.1,29.84,NE,44,0.0,0.0,65,0.00,,,0.00,meteohub,2013-07-10 15:32:00,
2013-07-10 10:37:00,84.0,71.4,29.85,ENE,62,0.0,0.0,66,0.00,,,0.00,meteohub,2013-07-10 15:37:00,
2013-07-10 10:42:00,84.4,70.3,29.85,ENE,59,0.0,0.0,63,0.00,,,0.00,meteohub,2013-07-10 15:42:00,
2013-07-10 10:47:00,84.4,70.0,29.85,ENE,61,0.0,0.0,62,0.00,,,0.00,meteohub,2013-07-10 15:47:00,
2013-07-10 10:52:00,84.6,70.2,29.85,ENE,70,0.0,0.0,62,0.00,,,0.00,meteohub,2013-07-10 15:52:00,
2013-07-10 10:57:00,84.7,69.3,29.86,ENE,63,0.0,0.0,60,0.00,,,0.00,meteohub,2013-07-10 15:57:00,
2013-07-10 11:02:00,84.7,69.8,29.86,ENE,78,0.0,0.0,61,0.00,,,0.00,meteohub,2013-07-10 16:02:00,
2013-07-10 11:07:00,84.7,68.9,29.86,ENE,71,0.0,0.0,59,0.00,,,0.00,meteohub,2013-07-10 16:07:00,
2013-07-10 11:12:00,84.7,69.3,29.86,ENE,62,0.0,0.0,60,0.00,,,0.00,meteohub,2013-07-10 16:12:00,
2013-07-10 11:17:00,84.9,68.5,29.87,ENE,57,0.0,0.0,58,0.00,,,0.00,meteohub,2013-07-10 16:17:00,
2013-07-10 11:22:00,84.9,69.4,29.87,ENE,65,0.0,0.0,60,0.00,,,0.00,meteohub,2013-07-10 16:22:00,
2013-07-10 11:27:00,84.7,69.3,29.87,ENE,75,0.0,0.0,60,0.00,,,0.00,meteohub,2013-07-10 16:27:00,
2013-07-10 11:32:00,84.7,69.8,29.87,ENE,61,0.0,0.0,61,0.00,,,0.00,meteohub,2013-07-10 16:32:00,
2013-07-10 11:37:00,84.7,69.3,29.87,ENE,57,0.0,0.0,60,0.00,,,0.00,meteohub,2013-07-10 16:37:00,
2013-07-10 11:42:00,84.9,69.4,29.87,ENE,59,0.0,0.0,60,0.00,,,0.00,meteohub,2013-07-10 16:42:00,
2013-07-10 11:47:00,84.9,68.5,29.87,ENE,68,0.0,0.0,58,0.00,,,0.00,meteohub,2013-07-10 16:47:00,
2013-07-10 11:51:00,84.9,69.4,29.87,ENE,76,0.0,0.0,60,0.00,,,0.00,meteohub,2013-07-10 16:51:00,
2013-07-10 11:57:00,84.9,68.9,29.87,NE,54,0.0,0.0,59,0.00,,,0.00,meteohub,2013-07-10 16:57:00,
2013-07-10 12:02:00,84.9,69.4,29.87,ENE,76,0.0,0.0,60,0.00,,,0.00,meteohub,2013-07-10 17:02:00,
2013-07-10 12:07:00,84.6,69.6,29.88,ENE,63,0.0,0.0,61,0.00,,,0.00,meteohub,2013-07-10 17:07:00,
2013-07-10 12:12:00,84.6,69.1,29.88,NE,53,0.0,0.0,60,0.00,,,0.00,meteohub,2013-07-10 17:12:00,
2013-07-10 12:17:00,84.4,70.3,29.88,ENE,64,0.0,0.0,63,0.00,,,0.00,meteohub,2013-07-10 17:17:00,
2013-07-10 12:22:00,84.0,68.2,29.88,ENE,68,0.0,0.0,59,0.00,,,0.00,meteohub,2013-07-10 17:22:00,
2013-07-10 12:27:00,83.7,67.3,29.88,ENE,70,0.0,0.0,58,0.00,,,0.00,meteohub,2013-07-10 17:27:00,
2013-07-10 12:33:00,83.5,68.2,29.87,NE,45,0.0,0.0,60,0.00,,,0.00,meteohub,2013-07-10 17:33:00,
2013-07-10 12:39:00,83.3,68.9,29.88,South,174,0.0,0.0,62,0.00,,,0.00,meteohub,2013-07-10 17:39:00,
2013-07-10 12:45:00,83.3,68.9,29.88,East,84,0.0,0.0,62,0.00,,,0.00,meteohub,2013-07-10 17:45:00,
2013-07-10 12:51:00,82.9,68.5,29.88,South,179,0.0,0.0,62,0.00,,,0.00,meteohub,2013-07-10 17:51:00,
2013-07-10 12:57:00,82.8,68.4,29.87,South,182,0.0,0.0,62,0.00,,,0.00,meteohub,2013-07-10 17:57:00,
2013-07-10 13:02:00,82.6,69.6,29.88,South,170,0.0,0.0,65,0.00,,,0.00,meteohub,2013-07-10 18:02:00,
2013-07-10 13:07:00,82.4,68.5,29.87,ENE,60,0.0,0.0,63,0.00,,,0.00,meteohub,2013-07-10 18:07:00,
2013-07-10 13:12:00,82.0,68.7,29.87,NE,49,0.0,0.0,64,0.00,,,0.00,meteohub,2013-07-10 18:12:00,
2013-07-10 13:17:00,82.0,69.6,29.87,ENE,69,0.0,0.0,66,0.00,,,0.00,meteohub,2013-07-10 18:17:00,
2013-07-10 13:22:00,82.0,68.7,29.87,ENE,67,0.0,0.0,64,0.00,,,0.00,meteohub,2013-07-10 18:22:00,
2013-07-10 13:27:00,82.4,69.4,29.88,SE,124,0.0,0.0,65,0.00,,,0.00,meteohub,2013-07-10 18:27:00,
2013-07-10 13:32:00,82.9,70.0,29.88,SW,215,0.0,0.0,65,0.00,,,0.00,meteohub,2013-07-10 18:32:00,
2013-07-10 13:37:00,83.3,69.8,29.87,ENE,74,0.0,0.0,64,0.00,,,0.00,meteohub,2013-07-10 18:37:00,
2013-07-10 13:42:00,83.7,70.7,29.88,ENE,67,0.0,0.0,65,0.00,,,0.00,meteohub,2013-07-10 18:42:00,
2013-07-10 13:47:00,84.4,70.3,29.88,ENE,74,0.0,0.0,63,0.00,,,0.00,meteohub,2013-07-10 18:47:00,
2013-07-10 13:52:00,84.7,69.8,29.88,ENE,65,0.0,0.0,61,0.00,,,0.00,meteohub,2013-07-10 18:52:00,
2013-07-10 13:57:00,84.9,68.9,29.88,SSW,194,0.0,0.0,59,0.00,,,0.00,meteohub,2013-07-10 18:57:00,
2013-07-10 14:02:00,85.3,69.3,29.87,East,101,0.0,0.0,59,0.00,,,0.00,meteohub,2013-07-10 19:02:00,
2013-07-10 14:07:00,85.5,69.1,29.87,South,190,0.0,0.0,58,0.00,,,0.00,meteohub,2013-07-10 19:07:00,
2013-07-10 14:12:00,85.5,68.0,29.88,SSW,196,0.0,0.0,56,0.00,,,0.00,meteohub,2013-07-10 19:12:00,
2013-07-10 14:17:00,85.5,68.0,29.88,SSW,198,0.0,0.0,56,0.00,,,0.00,meteohub,2013-07-10 19:17:00,
2013-07-10 14:22:00,84.9,67.5,29.88,SSW,196,0.0,0.0,56,0.00,,,0.00,meteohub,2013-07-10 19:22:00,
2013-07-10 14:27:00,84.6,67.6,29.88,South,187,0.0,0.0,57,0.00,,,0.00,meteohub,2013-07-10 19:27:00,
2013-07-10 14:32:00,84.4,68.0,29.88,SSW,197,0.0,0.0,58,0.00,,,0.00,meteohub,2013-07-10 19:32:00,
2013-07-10 14:37:00,84.0,67.6,29.88,South,188,0.0,0.0,58,0.00,,,0.00,meteohub,2013-07-10 19:37:00,
2013-07-10 14:42:00,84.0,67.6,29.88,SSW,200,0.0,0.0,58,0.00,,,0.00,meteohub,2013-07-10 19:42:00,
2013-07-10 14:47:00,84.0,67.6,29.88,South,176,0.0,0.0,58,0.00,,,0.00,meteohub,2013-07-10 19:47:00,
2013-07-10 14:52:00,84.0,67.6,29.88,South,170,0.0,0.0,58,0.00,,,0.00,meteohub,2013-07-10 19:52:00,
2013-07-10 14:57:00,84.0,67.1,29.88,SSW,194,0.0,0.0,57,0.00,,,0.00,meteohub,2013-07-10 19:57:00,
2013-07-10 15:02:00,83.8,66.9,29.88,South,184,0.0,0.0,57,0.00,,,0.00,meteohub,2013-07-10 20:02:00,
2013-07-10 15:07:00,83.7,67.8,29.88,East,96,0.0,0.0,59,0.00,,,0.00,meteohub,2013-07-10 20:07:00,
2013-07-10 15:12:00,83.7,66.7,29.88,SSE,161,0.0,0.0,57,0.00,,,0.00,meteohub,2013-07-10 20:12:00,
2013-07-10 15:17:00,83.8,66.4,29.88,South,178,0.0,0.0,56,0.00,,,0.00,meteohub,2013-07-10 20:17:00,
2013-07-10 15:22:00,83.8,66.4,29.88,SSW,193,0.0,0.0,56,0.00,,,0.00,meteohub,2013-07-10 20:22:00,
2013-07-10 15:27:00,83.8,66.4,29.88,SSW,194,0.0,0.0,56,0.00,,,0.00,meteohub,2013-07-10 20:27:00,
2013-07-10 15:32:00,83.8,66.9,29.88,SSW,198,0.0,0.0,57,0.00,,,0.00,meteohub,2013-07-10 20:32:00,
2013-07-10 15:37:00,83.8,66.9,29.88,ENE,74,0.0,0.0,57,0.00,,,0.00,meteohub,2013-07-10 20:37:00,
2013-07-10 15:42:00,83.5,65.7,29.88,East,98,0.0,0.0,55,0.00,,,0.00,meteohub,2013-07-10 20:42:00,
2013-07-10 15:47:00,82.9,65.7,29.88,South,190,0.0,0.0,56,0.00,,,0.00,meteohub,2013-07-10 20:47:00,
2013-07-10 15:52:00,82.4,66.6,29.88,South,169,0.0,0.0,59,0.00,,,0.00,meteohub,2013-07-10 20:52:00,
2013-07-10 15:57:00,81.9,65.1,29.88,South,190,0.0,0.0,57,0.00,,,0.00,meteohub,2013-07-10 20:57:00,
2013-07-10 16:02:00,81.7,66.0,29.88,South,173,0.0,0.0,59,0.00,,,0.00,meteohub,2013-07-10 21:02:00,
2013-07-10 16:07:00,81.3,65.1,29.88,South,184,0.0,0.0,58,0.00,,,0.00,meteohub,2013-07-10 21:07:00,
2013-07-10 16:12:00,80.8,64.6,29.88,SSW,207,0.0,0.0,58,0.00,,,0.00,meteohub,2013-07-10 21:12:00,
2013-07-10 16:17:00,80.1,63.9,29.88,SSW,198,0.0,0.0,58,0.00,,,0.00,meteohub,2013-07-10 21:17:00,
2013-07-10 16:22:00,79.5,64.4,29.88,SSW,209,0.0,0.0,60,0.00,,,0.00,meteohub,2013-07-10 21:22:00,
2013-07-10 16:27:00,79.2,63.1,29.88,South,175,0.0,0.0,58,0.00,,,0.00,meteohub,2013-07-10 21:27:00,
2013-07-10 16:32:00,78.8,63.7,29.88,South,182,0.0,0.0,60,0.00,,,0.00,meteohub,2013-07-10 21:32:00,
2013-07-10 16:37:00,78.6,64.0,29.88,SSW,208,0.0,0.0,61,0.00,,,0.00,meteohub,2013-07-10 21:37:00,
2013-07-10 16:42:00,78.4,64.4,29.88,SW,220,0.0,0.0,62,0.00,,,0.00,meteohub,2013-07-10 21:42:00,
2013-07-10 16:47:00,78.3,64.2,29.88,SW,216,0.0,0.0,62,0.00,,,0.00,meteohub,2013-07-10 21:47:00,
2013-07-10 16:52:00,78.3,63.3,29.88,South,176,0.0,0.0,60,0.00,,,0.00,meteohub,2013-07-10 21:52:00,
2013-07-10 16:57:00,77.9,63.3,29.87,South,185,0.0,0.0,61,0.00,,,0.00,meteohub,2013-07-10 21:57:00,
2013-07-10 17:02:00,77.5,63.0,29.87,South,191,0.0,0.0,61,0.00,,,0.00,meteohub,2013-07-10 22:02:00,
2013-07-10 17:07:00,77.4,62.8,29.87,SSW,194,0.0,0.0,61,0.00,,,0.00,meteohub,2013-07-10 22:07:00,
2013-07-10 17:12:00,77.4,63.3,29.87,SSW,211,0.0,0.0,62,0.00,,,0.00,meteohub,2013-07-10 22:12:00,
2013-07-10 17:17:00,77.2,63.1,29.87,East,80,0.0,0.0,62,0.00,,,0.00,meteohub,2013-07-10 22:17:00,
2013-07-10 17:22:00,77.2,62.6,29.87,East,95,0.0,0.0,61,0.00,,,0.00,meteohub,2013-07-10 22:22:00,
2013-07-10 17:27:00,77.2,63.1,29.87,East,79,0.0,0.0,62,0.00,,,0.00,meteohub,2013-07-10 22:27:00,
2013-07-10 17:32:00,77.2,62.6,29.87,South,187,0.0,0.0,61,0.00,,,0.00,meteohub,2013-07-10 22:32:00,
2013-07-10 17:37:00,77.2,62.6,29.88,SSW,195,0.0,0.0,61,0.00,,,0.00,meteohub,2013-07-10 22:37:00,
2013-07-10 17:42:00,76.8,62.4,29.87,SSE,157,0.0,0.0,61,0.00,,,0.00,meteohub,2013-07-10 22:42:00,
2013-07-10 17:47:00,76.8,62.8,29.88,ESE,114,0.0,0.0,62,0.00,,,0.00,meteohub,2013-07-10 22:47:00,
2013-07-10 17:52:00,76.8,62.8,29.88,ENE,65,0.0,0.0,62,0.00,,,0.00,meteohub,2013-07-10 22:52:00,
2013-07-10 17:57:00,76.6,62.2,29.88,SSW,202,0.0,0.0,61,0.00,,,0.00,meteohub,2013-07-10 22:57:00,
2013-07-10 18:02:00,76.6,61.7,29.88,South,186,0.0,0.0,60,0.00,,,0.00,meteohub,2013-07-10 23:02:00,
2013-07-10 18:07:00,76.5,62.1,29.88,South,188,0.0,0.0,61,0.00,,,0.00,meteohub,2013-07-10 23:07:00,
2013-07-10 18:12:00,76.5,62.1,29.88,SSW,202,0.0,0.0,61,0.00,,,0.00,meteohub,2013-07-10 23:12:00,
2013-07-10 18:17:00,76.5,62.4,29.88,SSW,196,0.0,0.0,62,0.00,,,0.00,meteohub,2013-07-10 23:17:00,
2013-07-10 18:22:00,76.3,61.9,29.88,South,179,0.0,0.0,61,0.00,,,0.00,meteohub,2013-07-10 23:22:00,
2013-07-10 18:27:00,76.3,62.2,29.88,ENE,69,0.0,0.0,62,0.00,,,0.00,meteohub,2013-07-10 23:27:00,
2013-07-10 18:32:00,76.3,62.2,29.89,SSE,157,0.0,0.0,62,0.00,,,0.00,meteohub,2013-07-10 23:32:00,
2013-07-10 18:37:00,76.3,62.2,29.89,ESE,112,0.0,0.0,62,0.00,,,0.00,meteohub,2013-07-10 23:37:00,
2013-07-10 18:42:00,76.1,62.6,29.89,South,173,0.0,0.0,63,0.00,,,0.00,meteohub,2013-07-10 23:42:00,
2013-07-10 18:47:00,75.9,62.4,29.89,East,90,0.0,0.0,63,0.00,,,0.00,meteohub,2013-07-10 23:47:00,
2013-07-10 18:52:00,75.9,61.9,29.90,South,187,0.0,0.0,62,0.00,,,0.00,meteohub,2013-07-10 23:52:00,
2013-07-10 18:57:00,75.9,61.9,29.90,South,185,0.0,0.0,62,0.00,,,0.00,meteohub,2013-07-10 23:57:00,
2013-07-10 19:02:00,75.7,62.2,29.90,South,185,0.0,0.0,63,0.00,,,0.00,meteohub,2013-07-11 00:02:00,
2013-07-10 19:07:00,75.7,62.2,29.91,ESE,117,0.0,0.0,63,0.00,,,0.00,meteohub,2013-07-11 00:07:00,
2013-07-10 19:12:00,75.6,62.1,29.91,South,178,0.0,0.0,63,0.00,,,0.00,meteohub,2013-07-11 00:12:00,
2013-07-10 19:17:00,75.6,62.1,29.91,ENE,72,0.0,0.0,63,0.00,,,0.00,meteohub,2013-07-11 00:17:00,
2013-07-10 19:22:00,75.6,62.6,29.91,ENE,64,0.0,0.0,64,0.00,,,0.00,meteohub,2013-07-11 00:22:00,
2013-07-10 19:27:00,75.4,61.9,29.92,ENE,66,0.0,0.0,63,0.00,,,0.00,meteohub,2013-07-11 00:27:00,
2013-07-10 19:32:00,75.4,61.9,29.92,SSW,205,0.0,0.0,63,0.00,,,0.00,meteohub,2013-07-11 00:32:00,
2013-07-10 19:37:00,75.0,62.1,29.92,SSW,197,0.0,0.0,64,0.00,,,0.00,meteohub,2013-07-11 00:37:00,
2013-07-10 19:42:00,75.0,61.5,29.92,SSW,197,0.0,0.0,63,0.00,,,0.00,meteohub,2013-07-11 00:42:00,
2013-07-10 19:47:00,74.8,61.9,29.92,SSW,197,0.0,0.0,64,0.00,,,0.00,meteohub,2013-07-11 00:47:00,
2013-07-10 19:52:00,74.7,61.2,29.92,SSW,206,0.0,0.0,63,0.00,,,0.00,meteohub,2013-07-11 00:52:00,
2013-07-10 19:57:00,74.5,61.5,29.92,South,176,0.0,0.0,64,0.00,,,0.00,meteohub,2013-07-11 00:57:00,
2013-07-10 20:02:00,74.3,61.3,29.92,South,176,0.0,0.0,64,0.00,,,0.00,meteohub,2013-07-11 01:02:00,
2013-07-10 20:07:00,74.1,61.5,29.92,SE,126,0.0,0.0,65,0.00,,,0.00,meteohub,2013-07-11 01:07:00,
2013-07-10 20:12:00,73.9,61.3,29.93,SSE,165,0.0,0.0,65,0.00,,,0.00,meteohub,2013-07-11 01:12:00,
2013-07-10 20:17:00,73.8,61.3,29.93,South,169,0.0,0.0,65,0.00,,,0.00,meteohub,2013-07-11 01:17:00,
2013-07-10 20:22:00,73.6,61.2,29.93,SSE,165,0.0,0.0,65,0.00,,,0.00,meteohub,2013-07-11 01:22:00,
2013-07-10 20:27:00,73.2,61.2,29.93,SSE,165,0.0,0.0,66,0.00,,,0.00,meteohub,2013-07-11 01:27:00,
2013-07-10 20:32:00,73.0,61.9,29.93,South,178,0.0,0.0,68,0.00,,,0.00,meteohub,2013-07-11 01:32:00,
2013-07-10 20:37:00,72.9,61.3,29.93,South,178,0.0,0.0,67,0.00,,,0.00,meteohub,2013-07-11 01:37:00,
2013-07-10 20:42:00,72.9,61.7,29.93,South,178,0.0,0.0,68,0.00,,,0.00,meteohub,2013-07-11 01:42:00,
2013-07-10 20:47:00,72.7,60.6,29.93,South,178,0.0,0.0,66,0.00,,,0.00,meteohub,2013-07-11 01:47:00,
2013-07-10 20:52:00,72.3,60.8,29.93,South,178,0.0,0.0,67,0.00,,,0.00,meteohub,2013-07-11 01:52:00,
2013-07-10 20:57:00,72.1,60.6,29.94,South,178,0.0,0.0,67,0.00,,,0.00,meteohub,2013-07-11 01:57:00,
2013-07-10 21:02:00,72.0,60.4,29.94,South,178,0.0,0.0,67,0.00,,,0.00,meteohub,2013-07-11 02:02:00,
2013-07-10 21:07:00,72.0,60.4,29.94,South,178,0.0,0.0,67,0.00,,,0.00,meteohub,2013-07-11 02:07:00,
2013-07-10 21:12:00,71.8,60.3,29.94,South,178,0.0,0.0,67,0.00,,,0.00,meteohub,2013-07-11 02:12:00,
2013-07-10 21:17:00,71.4,60.3,29.94,South,178,0.0,0.0,68,0.00,,,0.00,meteohub,2013-07-11 02:17:00,
2013-07-10 21:22:00,71.2,60.6,29.94,South,178,0.0,0.0,69,0.00,,,0.00,meteohub,2013-07-11 02:22:00,
2013-07-10 21:27:00,71.2,60.1,29.94,South,178,0.0,0.0,68,0.00,,,0.00,meteohub,2013-07-11 02:27:00,
2013-07-10 21:32:00,71.1,59.9,29.95,South,178,0.0,0.0,68,0.00,,,0.00,meteohub,2013-07-11 02:32:00,
2013-07-10 21:37:00,70.9,60.3,29.95,South,178,0.0,0.0,69,0.00,,,0.00,meteohub,2013-07-11 02:37:00,
2013-07-10 21:42:00,70.9,60.6,29.95,South,178,0.0,0.0,70,0.00,,,0.00,meteohub,2013-07-11 02:42:00,
2013-07-10 21:47:00,70.5,59.9,29.95,South,178,0.0,0.0,69,0.00,,,0.00,meteohub,2013-07-11 02:47:00,
2013-07-10 21:52:00,70.3,60.1,29.95,South,178,0.0,0.0,70,0.00,,,0.00,meteohub,2013-07-11 02:52:00,
2013-07-10 21:57:00,70.3,60.1,29.95,South,178,0.0,0.0,70,0.00,,,0.00,meteohub,2013-07-11 02:57:00,
2013-07-10 22:02:00,70.2,60.3,29.96,South,178,0.0,0.0,71,0.00,,,0.00,meteohub,2013-07-11 03:02:00,
2013-07-10 22:07:00,70.0,59.7,29.96,South,178,0.0,0.0,70,0.00,,,0.00,meteohub,2013-07-11 03:07:00,
2013-07-10 22:12:00,69.8,59.9,29.96,South,178,0.0,0.0,71,0.00,,,0.00,meteohub,2013-07-11 03:12:00,
2013-07-10 22:17:00,69.6,60.3,29.96,South,178,0.0,0.0,72,0.00,,,0.00,meteohub,2013-07-11 03:17:00,
2013-07-10 22:22:00,69.6,60.6,29.96,South,178,0.0,0.0,73,0.00,,,0.00,meteohub,2013-07-11 03:22:00,
2013-07-10 22:27:00,69.4,60.8,29.96,South,178,0.0,0.0,74,0.00,,,0.00,meteohub,2013-07-11 03:27:00,
2013-07-10 22:32:00,69.4,60.1,29.96,South,178,0.0,0.0,72,0.00,,,0.00,meteohub,2013-07-11 03:32:00,
2013-07-10 22:37:00,69.3,59.9,29.96,South,178,0.0,0.0,72,0.00,,,0.00,meteohub,2013-07-11 03:37:00,
2013-07-10 22:42:00,69.3,59.9,29.97,South,178,0.0,0.0,72,0.00,,,0.00,meteohub,2013-07-11 03:42:00,
2013-07-10 22:47:00,69.1,59.7,29.97,South,178,0.0,0.0,72,0.00,,,0.00,meteohub,2013-07-11 03:47:00,
2013-07-10 22:52:00,69.1,60.1,29.97,South,178,0.0,0.0,73,0.00,,,0.00,meteohub,2013-07-11 03:52:00,
2013-07-10 22:58:00,69.1,60.8,29.97,South,178,0.0,0.0,75,0.00,,,0.00,meteohub,2013-07-11 03:58:00,
2013-07-10 23:01:00,68.9,60.3,29.97,South,178,0.0,0.0,74,0.00,,,0.00,meteohub,2013-07-11 04:01:00,
2013-07-10 23:02:00,68.9,60.3,29.97,South,178,0.0,0.0,74,0.00,,,0.00,meteohub,2013-07-11 04:02:00,
2013-07-10 23:04:00,68.7,60.1,29.97,South,178,0.0,0.0,74,0.00,,,0.00,meteohub,2013-07-11 04:04:00,
2013-07-10 23:07:00,68.7,60.1,29.97,South,178,0.0,0.0,74,0.00,,,0.00,meteohub,2013-07-11 04:07:00,
2013-07-10 23:10:00,68.7,59.7,29.97,South,178,0.0,0.0,73,0.00,,,0.00,meteohub,2013-07-11 04:10:00,
2013-07-10 23:16:00,68.5,59.5,29.97,South,178,0.0,0.0,73,0.00,,,0.00,meteohub,2013-07-11 04:16:00,
2013-07-10 23:22:00,68.5,59.9,29.97,South,178,0.0,0.0,74,0.00,,,0.00,meteohub,2013-07-11 04:22:00,
2013-07-10 23:27:00,68.4,59.4,29.97,South,178,0.0,0.0,73,0.00,,,0.00,meteohub,2013-07-11 04:27:00,
2013-07-10 23:32:00,68.4,59.7,29.97,South,178,0.0,0.0,74,0.00,,,0.00,meteohub,2013-07-11 04:32:00,
2013-07-10 23:37:00,68.4,60.1,29.98,South,178,0.0,0.0,75,0.00,,,0.00,meteohub,2013-07-11 04:37:00,
2013-07-10 23:42:00,68.2,59.9,29.98,South,178,0.0,0.0,75,0.00,,,0.00,meteohub,2013-07-11 04:42:00,
2013-07-10 23:47:00,68.2,60.3,29.98,South,178,0.0,0.0,76,0.00,,,0.00,meteohub,2013-07-11 04:47:00,
2013-07-10 23:52:00,68.0,60.1,29.98,South,178,0.0,0.0,76,0.00,,,0.00,meteohub,2013-07-11 04:52:00,
2013-07-10 23:57:00,67.8,60.3,29.98,South,178,0.0,0.0,77,0.00,,,0.00,meteohub,2013-07-11 04:57:00,